Date String (YYYY-MM-DD hh:mm:ss) UTC,Instrument flags,Ambient pressure (hPa),Sample flow (lpm),Bypass flow (lpm),Sample temperature (°C),Ambient temperature (°C),ASC tube jacket temperature (°C),LED temperature (°C),Box temperature (°C),Sample RH (%),Span deviation,Mass concentration (μg/m³),Mass concentration (μg/m³),Mass concentration (μg/m³)
DateTimeUTC,F1_M11,P_M11,Q1_M11,Q2_M11,T1_M11,T2_M11,T3_M11,T4_M11,T5_M11,U1_M11,ZSPAN_M11,X2_M11,X0_M11,X1_M11
2022-01-26 07:00:00,,0829.1,5.00,0.00,22.0,22.5,00.0,30.9,23.9,07.6,0000.0,0003.54,0004.38,0003.46
2022-01-26 07:01:00,,0829.0,5.01,0.00,22.0,22.1,00.0,30.9,23.7,07.6,0000.0,0003.53,0004.35,0003.46
2022-01-26 07:02:00,,0828.7,4.98,0.00,21.9,21.7,00.0,30.9,23.6,07.6,0000.0,0003.53,0004.32,0003.46
2022-01-26 07:03:00,,0828.7,5.00,0.00,21.9,21.5,00.0,30.9,23.5,07.7,0000.0,0003.53,0004.32,0003.46
2022-01-26 07:04:00,,0828.7,5.00,0.00,21.8,21.3,00.0,30.9,23.3,07.7,0000.0,0003.53,0004.31,0003.46
2022-01-26 07:05:00,,0828.6,5.00,0.00,21.7,21.1,00.0,30.9,23.2,07.7,0000.0,0003.53,0004.31,0003.46
2022-01-26 07:06:00,,0828.6,5.01,0.00,21.7,20.9,00.0,30.8,23.2,07.7,0000.0,0003.54,0004.34,0003.47
2022-01-26 07:07:00,,0828.6,5.00,0.00,21.6,20.9,00.0,30.8,23.1,07.7,0000.0,0003.55,0004.36,0003.47
2022-01-26 07:08:00,,0828.5,4.99,0.00,21.7,21.6,00.0,30.8,23.4,07.7,0000.0,0003.55,0004.37,0003.47
2022-01-26 07:09:00,,0828.9,5.00,0.00,21.8,22.3,00.0,30.9,23.7,07.6,0000.0,0003.55,0004.37,0003.48
2022-01-26 07:10:00,,0829.0,5.01,0.00,22.0,22.9,00.0,30.9,23.9,07.5,0000.0,0003.56,0004.39,0003.49
2022-01-26 07:11:00,,0828.9,5.00,0.00,22.1,22.8,00.0,30.9,23.9,07.5,0000.0,0003.55,0004.36,0003.49
2022-01-26 07:12:00,,0828.6,5.00,0.00,22.0,22.4,00.0,30.9,23.8,07.4,0000.0,0003.55,0004.32,0003.49
2022-01-26 07:13:00,,0828.5,5.00,0.00,22.0,22.1,00.0,30.9,23.7,07.4,0000.0,0003.55,0004.36,0003.49
2022-01-26 07:14:00,,0828.4,5.01,0.00,21.9,21.8,00.0,30.9,23.5,07.5,0000.0,0003.56,0004.38,0003.50
2022-01-26 07:15:00,,0828.4,4.98,0.00,21.9,21.5,00.0,30.9,23.4,07.5,0000.0,0003.57,0004.46,0003.50
2022-01-26 07:16:00,,0828.4,5.00,0.00,21.8,21.2,00.0,30.9,23.3,07.6,0000.0,0003.59,0004.54,0003.50
2022-01-26 07:17:00,,0828.3,4.99,0.00,21.7,21.0,00.0,30.8,23.2,07.6,0000.0,0003.59,0004.56,0003.50
2022-01-26 07:18:00,,0828.3,5.00,0.00,21.6,20.9,00.0,30.8,23.2,07.6,0000.0,0003.59,0004.55,0003.50
2022-01-26 07:19:00,,0828.3,5.00,0.00,21.6,21.1,00.0,30.8,23.2,07.6,0000.0,0003.60,0004.60,0003.51
2022-01-26 07:20:00,,0828.3,5.01,0.00,21.7,21.8,00.0,30.8,23.4,07.6,0000.0,0003.60,0004.60,0003.52
2022-01-26 07:21:00,,0828.3,5.01,0.00,21.9,22.5,00.0,30.9,23.7,07.5,0000.0,0003.60,0004.60,0003.52
2022-01-26 07:22:00,,0828.3,4.99,0.00,22.0,22.9,00.0,30.9,23.9,07.4,0000.0,0003.62,0004.66,0003.52
2022-01-26 07:23:00,,0828.2,5.00,0.00,22.1,22.6,00.0,30.9,23.9,07.4,0000.0,0003.62,0004.70,0003.52
2022-01-26 07:24:00,,0828.3,5.00,0.00,22.0,22.2,00.0,30.9,23.8,07.4,0000.0,0003.63,0004.70,0003.53
2022-01-26 07:25:00,,0828.3,5.01,0.00,22.0,21.9,00.0,30.9,23.6,07.4,0000.0,0003.64,0004.73,0003.53
2022-01-26 07:26:00,,0828.1,4.99,0.00,21.9,21.6,00.0,30.9,23.5,07.3,0000.0,0003.66,0004.85,0003.53
2022-01-26 07:27:00,,0828.2,5.00,0.00,21.8,21.3,00.0,30.9,23.4,07.3,0000.0,0003.66,0004.86,0003.53
2022-01-26 07:28:00,,0828.1,4.99,0.00,21.8,21.1,00.0,30.9,23.3,07.3,0000.0,0003.66,0004.88,0003.53
2022-01-26 07:29:00,,0828.1,5.00,0.00,21.7,20.9,00.0,30.8,23.2,07.4,0000.0,0003.67,0004.87,0003.53
2022-01-26 07:30:00,,0828.1,5.01,0.00,21.6,20.7,00.0,30.8,23.1,07.4,0000.0,0003.65,0004.80,0003.52
2022-01-26 07:31:00,,0828.1,5.00,0.00,21.6,21.1,00.0,30.8,23.2,07.4,0000.0,0003.64,0004.78,0003.52
2022-01-26 07:32:00,,0828.1,5.02,0.00,21.7,21.9,00.0,30.8,23.5,07.3,0000.0,0003.65,0004.89,0003.51
2022-01-26 07:33:00,,0828.1,5.00,0.00,21.9,22.6,00.0,30.9,23.8,07.3,0000.0,0003.64,0004.89,0003.51
2022-01-26 07:34:00,,0828.0,5.00,0.00,22.0,22.9,00.0,30.9,23.9,07.2,0000.0,0003.63,0004.86,0003.51
2022-01-26 07:35:00,,0828.0,5.00,0.00,22.0,22.5,00.0,30.9,23.9,07.1,0000.0,0003.63,0004.93,0003.50
2022-01-26 07:36:00,,0828.0,5.00,0.00,22.0,22.1,00.0,30.9,23.7,07.1,0000.0,0003.61,0004.94,0003.48
2022-01-26 07:37:00,,0827.9,5.00,0.00,21.9,21.8,00.0,30.9,23.5,07.1,0000.0,0003.59,0004.80,0003.48
2022-01-26 07:38:00,,0828.0,4.99,0.00,21.8,21.5,00.0,30.9,23.4,07.1,0000.0,0003.57,0004.73,0003.48
2022-01-26 07:39:00,,0827.9,5.00,0.00,21.8,21.3,00.0,30.9,23.3,07.1,0000.0,0003.56,0004.69,0003.47
2022-01-26 07:40:00,,0827.9,4.99,0.00,21.7,21.1,00.0,30.8,23.2,07.1,0000.0,0003.55,0004.68,0003.47
2022-01-26 07:41:00,,0827.8,5.00,0.00,21.6,21.0,00.0,30.8,23.1,07.1,0000.0,0003.54,0004.67,0003.46
2022-01-26 07:42:00,,0827.8,5.00,0.00,21.7,21.5,00.0,30.8,23.3,07.1,0000.0,0003.53,0004.62,0003.45
2022-01-26 07:43:00,,0827.8,5.01,0.00,21.8,22.2,00.0,30.8,23.6,07.1,0000.0,0003.50,0004.42,0003.43
2022-01-26 07:44:00,,0827.8,5.00,0.00,22.0,22.9,00.0,30.9,23.9,07.0,0000.0,0003.48,0004.34,0003.42
2022-01-26 07:45:00,,0827.8,5.00,0.00,22.0,22.8,00.0,30.9,23.9,06.9,0000.0,0003.47,0004.31,0003.41
2022-01-26 07:46:00,,0827.7,5.00,0.00,22.0,22.4,00.0,30.9,23.8,06.9,0000.0,0003.46,0004.49,0003.40
2022-01-26 07:47:00,,0827.7,4.99,0.00,22.0,22.0,00.0,30.9,23.6,07.0,0000.0,0003.45,0004.79,0003.40
2022-01-26 07:48:00,,0827.7,5.00,0.00,21.9,21.6,00.0,30.9,23.5,07.1,0000.0,0003.43,0004.73,0003.38
2022-01-26 07:49:00,,0827.7,5.00,0.00,21.8,21.3,00.0,30.9,23.3,07.1,0000.0,0003.41,0004.71,0003.37
2022-01-26 07:50:00,,0827.7,5.00,0.00,21.7,21.0,00.0,30.9,23.2,07.3,0000.0,0003.42,0004.71,0003.37
2022-01-26 07:51:00,,0827.6,5.00,0.00,21.7,20.8,00.0,30.8,23.1,07.2,0000.0,0003.42,0004.75,0003.36
2022-01-26 07:52:00,,0827.7,5.00,0.00,21.6,21.0,00.0,30.8,23.1,07.1,0000.0,0003.42,0004.78,0003.35
2022-01-26 07:53:00,,0827.7,5.01,0.00,21.7,21.7,00.0,30.8,23.4,07.0,0000.0,0003.41,0004.78,0003.35
2022-01-26 07:54:00,,0827.6,5.00,0.00,21.9,22.5,00.0,30.9,23.7,07.0,0000.0,0003.41,0004.77,0003.35
2022-01-26 07:55:00,,0827.6,4.98,0.00,22.0,23.0,00.0,30.9,23.9,06.9,0000.0,0003.41,0004.77,0003.35
2022-01-26 07:56:00,,0827.6,5.00,0.00,22.1,22.7,00.0,30.9,23.9,06.9,0000.0,0003.40,0004.76,0003.34
2022-01-26 07:57:00,,0827.5,5.00,0.00,22.0,22.3,00.0,30.9,23.8,06.9,0000.0,0003.40,0004.60,0003.34
2022-01-26 07:58:00,,0827.5,5.01,0.00,22.0,21.9,00.0,30.9,23.6,06.9,0000.0,0003.40,0004.07,0003.35
2022-01-26 07:59:00,,0827.5,5.01,0.00,21.9,21.6,00.0,30.9,23.5,06.9,0000.0,0003.41,0004.10,0003.35
